Oxford, CT

8:59 AM EDT on May 24, 2017 (GMT -0400)
Waterbury-Oxford

Weather History for KOXC - April, 2013

Change the Weather History Date:

Thursday, April 11, 2013

  Actual Average Record
Temperature  
Mean Temperature 48 °F -  
Max Temperature 53 °F 54 °F 82 °F (2017)
Min Temperature 44 °F 35 °F 24 °F (1999)
Degree Days  
Heating Degree Days 16    
Moisture  
Dew Point 44 °F    
Average Humidity 78    
Maximum Humidity 88    
Minimum Humidity 54    
Precipitation  
Precipitation 0.00 in - - ()
Sea Level Pressure  
Sea Level Pressure 29.95 in    
Wind  
Wind Speed 4 mph (ENE)    
Max Wind Speed 12 mph    
Max Gust Speed -    
Visibility 7 miles    
Events      
Averages and records for this station are not official NWS values.
T = Trace of Precipitation, MM = Missing Value Source: NWS Daily Summary

Daily Weather History Graph

Daily Weather History Graph

Search for Another Location

Airport or City:

Trip Planner

Search our weather history database for the weather conditions in past years. The results will help you decide how hot, cold, wet, or windy it might be!

Date:

Astronomy

Apr. 11, 2013 Rise Set
Actual Time 6:18 AM EDT 7:28 PM EDT
Civil Twilight 5:50 AM EDT 7:57 PM EDT
Nautical Twilight 5:16 AM EDT 8:31 PM EDT
Astronomical Twilight 4:40 AM EDT 9:07 PM EDT
Moon 6:47 AM EDT (4/11) 9:02 PM EDT (4/11)
Length of Visible Light 14h 07m
Length of Day
13h 10m
New Moon, 2% of the Moon is Illuminated
Apr 11
New Moon
Apr 18
First Quarter
Apr 25
Full
May 2
Last Quarter
May 9
New

Hourly Weather History & Observations

Time (EDT) Temp. Windchill Dew Point Humidity Pressure Visibility Wind Dir Wind Speed Gust Speed Precip Events Conditions
12:15 AM 51.8 °F - 46.4 °F 82% 29.86 in 3.0 mi SSW 3.5 mph - N/A   Mostly Cloudy
12:35 AM 51.8 °F - 48.2 °F 88% 29.85 in 4.0 mi Calm Calm - N/A   Overcast
1:15 AM 51.8 °F - 48.2 °F 88% 29.85 in 3.0 mi Calm Calm - N/A   Overcast
1:35 AM 51.8 °F - 48.2 °F 88% 29.85 in 1.0 mi Calm Calm - N/A   Overcast
1:55 AM 51.8 °F - 48.2 °F 88% 29.85 in 1.5 mi Calm Calm - N/A   Overcast
2:15 AM 51.8 °F - 48.2 °F 88% 29.85 in 0.8 mi Calm Calm - N/A   Overcast
2:35 AM 53.6 °F - 50.0 °F 88% 29.83 in 0.8 mi Calm Calm - N/A   Overcast
2:55 AM 53.6 °F - 50.0 °F 88% 29.82 in 0.8 mi North 3.5 mph - N/A   Overcast
3:35 AM 53.6 °F - 50.0 °F 88% 29.84 in 0.8 mi NNW 4.6 mph - N/A   Overcast
3:55 AM 53.6 °F - 50.0 °F 88% 29.86 in 1.0 mi NNW 5.8 mph - N/A   Overcast
4:15 AM 53.6 °F - 50.0 °F 88% 29.85 in 4.0 mi North 8.1 mph - N/A   Overcast
4:35 AM 53.6 °F - 48.2 °F 82% 29.84 in 5.0 mi NNE 6.9 mph - N/A   Overcast
4:55 AM 53.6 °F - 48.2 °F 82% 29.86 in 8.0 mi NNE 5.8 mph - N/A   Overcast
5:15 AM 51.8 °F - 46.4 °F 82% 29.87 in 5.0 mi ENE 6.9 mph - N/A   Overcast
5:35 AM 51.8 °F - 46.4 °F 82% 29.89 in 10.0 mi NE 5.8 mph - N/A   Overcast
5:45 AM 50.0 °F - 46.4 °F 87% 29.90 in 6.0 mi ENE 5.8 mph - N/A   Overcast
6:45 AM 48.2 °F - 44.6 °F 87% 29.93 in 8.0 mi ENE 5.8 mph - N/A   Overcast
7:30 AM 48.2 °F - 44.6 °F 87% 29.95 in 10.0 mi NE 6.9 mph - N/A   Overcast
7:45 AM 48.2 °F - 44.6 °F 87% 29.95 in 10.0 mi ENE 3.5 mph - N/A   Overcast
8:45 AM 48.2 °F - 44.6 °F 87% 29.98 in 10.0 mi NNE 8.1 mph - N/A   Overcast
9:45 AM 50.0 °F - 42.8 °F 76% 29.97 in 10.0 mi ENE 6.9 mph - N/A   Overcast
10:45 AM 51.8 °F - 44.6 °F 76% 29.98 in 10.0 mi NE 8.1 mph - N/A   Overcast
11:45 AM 53.6 °F - 44.6 °F 72% 29.99 in 10.0 mi North 10.4 mph - N/A   Mostly Cloudy
1:55 PM 53.6 °F - 44.6 °F 72% 30.00 in 10.0 mi North 11.5 mph - N/A   Mostly Cloudy
2:45 PM 53.6 °F - 42.8 °F 67% 30.00 in 10.0 mi NNE 8.1 mph - N/A   Mostly Cloudy
3:45 PM 53.6 °F - 42.8 °F 67% 30.00 in 10.0 mi North 8.1 mph - N/A   Overcast
4:45 PM 53.6 °F - 42.8 °F 67% 29.99 in 10.0 mi ENE 8.1 mph - N/A   Overcast
5:46 PM 53.6 °F - 37.4 °F 54% 30.00 in 10.0 mi East 8.1 mph - N/A   Overcast
6:45 PM 51.8 °F - 35.6 °F 54% 30.02 in 10.0 mi East 6.9 mph - N/A   Overcast
7:45 PM 48.2 °F - 41.0 °F 76% 30.04 in 10.0 mi SSE 8.1 mph - N/A   Overcast
9:15 PM 46.4 °F 44.3 °F 37.4 °F 71% 30.08 in 10.0 mi SSE 4.6 mph - N/A   Overcast
9:35 PM 46.4 °F 42.9 °F 37.4 °F 71% 30.08 in 10.0 mi ESE 6.9 mph - N/A   Overcast
9:55 PM 44.6 °F 39.2 °F 37.4 °F 76% 30.07 in 10.0 mi ESE 10.4 mph - N/A   Overcast
10:35 PM 44.6 °F 40.2 °F 35.6 °F 71% 30.08 in 10.0 mi SE 8.1 mph - N/A   Overcast
10:55 PM 44.6 °F 41.4 °F 35.6 °F 71% 30.09 in 10.0 mi ESE 5.8 mph - N/A   Overcast
11:15 PM 44.6 °F 41.4 °F 35.6 °F 71% 30.09 in 10.0 mi East 5.8 mph - N/A   Overcast
11:35 PM 44.6 °F 42.2 °F 33.8 °F 66% 30.08 in 10.0 mi East 4.6 mph - N/A   Overcast
11:55 PM 44.6 °F 40.7 °F 33.8 °F 66% 30.09 in 10.0 mi East 6.9 mph - N/A   Overcast